Location: Unspecified
(41.5000°N, 0.0000°E)
Time: 15:25:44
(UTC+00:00)

Vanguard 3 - Pass Details

Date: 26 June 2019
Orbit: 508 x 3263 km, 33.3° (Epoch: 20 August)

Event Time Altitude Azimuth Distance (km) Brightness Sun altitude
Rises 13:41:50 0° 269° (W) 5,734 11.8 62.5°
Reaches altitude 10° 13:46:31 10° 264° (W) 4,252 11.4 61.8°
Maximum altitude 13:56:03 41° 199° (SSW) 1,681 10.0 60.2°
Drops below altitude 10° 14:01:42 10° 130° (SE) 2,515 9.7 59.3°
Sets 14:03:48 0° 122° (ESE) 3,222 10.1 59.0°
